WetterOnline ( http://www.wetteronline.de )

Wetter aktuell München

Aktuelles Wetter: München/Stadt (535m)

6-stündlich | Neueste Meldungen
Ortszeit Temperatur Wetter
Sa, 20.10. 14:00 14.2° C bedeckt
Sa, 20.10. 8:00 6.6° C Nebel
Sa, 20.10. 2:00 8.0° C bedeckt
Fr, 19.10. 20:00 12.0° C wolkig
Fr, 19.10. 14:00 14.0° C fast wolkenlos
Fr, 19.10. 8:00 7.5° C Nebel
Fr, 19.10. 2:00 8.2° C wolkenlos
Do, 18.10. 20:00 12.8° C wolkig
Ortszeit Temperatur Wetter
Sa, 20.10. 14:00 14.2° C bedeckt
Sa, 20.10. 13:50 14.2° C bedeckt
Sa, 20.10. 13:40 14.4° C bedeckt
Sa, 20.10. 13:30 14.6° C bedeckt
Sa, 20.10. 13:20 14.6° C bedeckt
Sa, 20.10. 13:10 14.5° C bedeckt
Sa, 20.10. 13:00 14.9° C wolkig
Sa, 20.10. 12:30 13.9° C bedeckt
Sa, 20.10. 12:00 13.7° C bedeckt
Sa, 20.10. 11:30 12.1° C bedeckt
Sa, 20.10. 11:00 11.2° C bedeckt
Ortszeit Relative Feuchte Sichtweite
Sa, 20.10. 14:00 69% 10 km
Sa, 20.10. 8:00 97% 0.5 km
Sa, 20.10. 2:00 94% 4.6 km
Fr, 19.10. 20:00 81% 10 km
Fr, 19.10. 14:00 75% 6 km
Fr, 19.10. 8:00 97% 0.2 km
Fr, 19.10. 2:00 95% 11 km
Do, 18.10. 20:00 79% 23 km
Ortszeit Relative Feuchte Sichtweite
Sa, 20.10. 14:00 69% 10 km
Sa, 20.10. 13:50 69% -
Sa, 20.10. 13:40 66% -
Sa, 20.10. 13:30 65% 11 km
Sa, 20.10. 13:20 65% -
Sa, 20.10. 13:10 65% -
Sa, 20.10. 13:00 66% 11 km
Sa, 20.10. 12:30 68% 9 km
Sa, 20.10. 12:00 74% 6 km
Sa, 20.10. 11:30 82% 5.0 km
Sa, 20.10. 11:00 84% 5.0 km
Ortszeit Niederschlagsmenge Niederschlagsart
Sa, 20.10. 14:00 0.0 l/m2 in 6 Std. -
Sa, 20.10. 8:00 0.0 l/m2 in 12 Std. -
Sa, 20.10. 2:00 0.0 l/m2 in 6 Std. -
Fr, 19.10. 20:00 0.0 l/m2 in 12 Std. -
Fr, 19.10. 14:00 0.0 l/m2 in 6 Std. -
Fr, 19.10. 8:00 0.0 l/m2 in 12 Std. -
Fr, 19.10. 2:00 0.0 l/m2 in 6 Std. -
Do, 18.10. 20:00 0.0 l/m2 in 12 Std. -
Ortszeit Niederschlagsmenge Niederschlagsart
Sa, 20.10. 14:00 0.0 l/m2 in 1 Std. -
Sa, 20.10. 13:50 keine Meldung -
Sa, 20.10. 13:40 keine Meldung -
Sa, 20.10. 13:30 0.0 l/m2 in 1 Std. -
Sa, 20.10. 13:20 keine Meldung -
Sa, 20.10. 13:10 keine Meldung -
Sa, 20.10. 13:00 0.0 l/m2 in 1 Std. -
Sa, 20.10. 12:30 0.0 l/m2 in 1 Std. -
Sa, 20.10. 12:00 0.0 l/m2 in 1 Std. -
Sa, 20.10. 11:30 0.0 l/m2 in 1 Std. -
Sa, 20.10. 11:00 0.0 l/m2 in 1 Std. -
Ortszeit Stärke Spitze Richtung
km/h Bft. km/h Grad Sektor
Sa, 20.10. 14:00 11 2 18 10° N
Sa, 20.10. 8:00 6 1 9 300° NW
Sa, 20.10. 2:00 2 1 11 260° W
Fr, 19.10. 20:00 7 2 28 60° NO
Fr, 19.10. 14:00 7 2 14 70° O
Fr, 19.10. 8:00 6 1 9 80° O
Fr, 19.10. 2:00 4 1 14 250° W
Do, 18.10. 20:00 7 2 18 60° NO
Ortszeit Stärke Spitze Richtung
km/h Bft. km/h Grad Sektor
Sa, 20.10. 14:00 11 2 18 10° N
Sa, 20.10. 13:50 11 2 - 10° N
Sa, 20.10. 13:40 7 2 - 360° N
Sa, 20.10. 13:30 9 2 17 350° N
Sa, 20.10. 13:20 9 2 - 350° N
Sa, 20.10. 13:10 9 2 - 360° N
Sa, 20.10. 13:00 7 2 15 20° N
Sa, 20.10. 12:30 4 1 7 330° NW
Sa, 20.10. 12:00 4 1 11 260° W
Sa, 20.10. 11:30 6 1 9 240° SW
Sa, 20.10. 11:00 6 1 9 250° W
Ortszeit Untergrenze Bedeckung Gattung
total tief tief mittel hoch
Sa, 20.10. 14:00 1170 m 8/8 8/8 - - -
Sa, 20.10. 8:00 <30 m 8/8 8/8 - - -
Sa, 20.10. 2:00 750 m 8/8 8/8 - - -
Fr, 19.10. 20:00 8400 m 8/8 0/8 - - -
Fr, 19.10. 14:00 1500 m 1/8 1/8 - - -
Fr, 19.10. 8:00 <30 m 8/8 8/8 - - -
Fr, 19.10. 2:00 - 0/8 0/8 - - -
Do, 18.10. 20:00 10500 m 8/8 0/8 - - -
Ortszeit Bedeckungsgrad in Achtel und Wolkenuntergrenze
Sa, 20.10. 14:00 8(1170m)
Sa, 20.10. 13:50 8(1170m)
Sa, 20.10. 13:40 8(1170m)
Sa, 20.10. 13:30 8(1170m)
Sa, 20.10. 13:20 8(1170m)
Sa, 20.10. 13:10 8(1170m)
Sa, 20.10. 13:00 7(1170m)
Sa, 20.10. 12:30 9 9 9
Sa, 20.10. 12:00 8(1170m)
Sa, 20.10. 11:30 8(1170m)
Sa, 20.10. 11:00 8(1170m)
Ortszeit Luftdruck NN (hPa) Tendenz (hPa in 3 Std.)
Sa, 20.10. 14:00 1028 + 0,1
Sa, 20.10. 8:00 1028 + 1,9
Sa, 20.10. 2:00 1026 + 0,8
Fr, 19.10. 20:00 1023 + 1,1
Fr, 19.10. 14:00 1022 - 0,5
Fr, 19.10. 8:00 1023 + 0,7
Fr, 19.10. 2:00 1022 - 0,4
Do, 18.10. 20:00 1020 + 1,4
Ortszeit Luftdruck NN (hPa) Tendenz (hPa in 3 Std.)
Sa, 20.10. 14:00 1028 + 0,1
Sa, 20.10. 13:50 1028 keine Meldung
Sa, 20.10. 13:40 1028 keine Meldung
Sa, 20.10. 13:30 1028 + 0,1
Sa, 20.10. 13:20 1028 keine Meldung
Sa, 20.10. 13:10 1028 keine Meldung
Sa, 20.10. 13:00 1028 + 0,4
Sa, 20.10. 12:30 1028 + 0,7
Sa, 20.10. 12:00 1028 + 0,8
Sa, 20.10. 11:30 1029 + 0,9
Sa, 20.10. 11:00 1029 + 1,3
Ortszeit Schneehöhe (cm)
Sa, 20.10. 14:00 0
Sa, 20.10. 8:00 0
Sa, 20.10. 2:00 0
Fr, 19.10. 20:00 0
Fr, 19.10. 14:00 0
Fr, 19.10. 8:00 0
Fr, 19.10. 2:00 0
Do, 18.10. 20:00 0
Ortszeit Schneehöhe (cm)
Sa, 20.10. 14:00 0
Sa, 20.10. 13:50 0
Sa, 20.10. 13:40 0
Sa, 20.10. 13:30 0
Sa, 20.10. 13:20 0
Sa, 20.10. 13:10 0
Sa, 20.10. 13:00 0
Sa, 20.10. 12:30 0
Sa, 20.10. 12:00 0
Sa, 20.10. 11:30 0
Sa, 20.10. 11:00 0
Link zu dieser Seite / Seite empfehlen

Das Wetter in ...